Location: Cudham
(51.3000°N, 0.0667°E)
Time: 16:42:54
(UTC+00:00)

USA 229 DEB - Pass Details

Date: 23 April 2026
Orbit: 844 x 1364 km, 63.4° (Epoch: 10 January)

Event Time Altitude Azimuth Distance (km) Brightness Sun altitude
Rises 00:58:07 0° 313° (NW) 4,014 7.1 -24.9°
Reaches altitude 10° 01:00:58 10° 305° (NW) 3,125 6.3 -24.8°
Maximum altitude 01:07:38 34° 244° (WSW) 1,958 4.7 -24.5°
Enters shadow 01:07:55 34° 240° (WSW) 1,965 4.7 -24.4°
